Regional Weather Roundup
Issued by NWS

Home | Current Version | Previous Version | Text Only | Print | Product List | Glossary Off
Versions: 1 2 3 4 5 6 7 8 9 10 11 12 13 14 15 16 17 18 19 20 21 22 23 24 25 26 27

416
ASUS45 KSLC 220310
RWRUT

UTAH REGIONAL WEATHER ROUNDUP
NATIONAL WEATHER SERVICE SALT LAKE CITY UT
900 PM MDT THU MAY 21 2015

UTZ001>011-023>025-220400-

NORTHERN UTAH

CITY           SKY/WX    TMP DP  RH WIND       PRES   REMARKS
BRIGHAM CITY   CLOUDY    58  44  58 CALM      29.92R
HILL AFB       CLOUDY    56  44  63 E13       29.91R
LOGAN          CLEAR     54  44  69 S13       29.92R
OGDEN          CLOUDY    58  44  60 CALM      29.90R
PROVO AIRPORT  MOCLDY    55  43  62 VRB5      29.90F
SALT LAKE CITY CLOUDY    60  46  59 CALM      29.89R
VERNAL         CLOUDY    65  28  24 CALM      29.86S
WENDOVER       CLOUDY    52  46  82 NE10      29.89F
HEBER CITY     CLOUDY    45  43  93 CALM      29.96F
WEST JORDAN    CLEAR     57  46  67 CALM      29.91S

$$

UTZ012>022-026-027-220400-

SOUTHERN/CENTRAL UTAH

CITY           SKY/WX    TMP DP  RH WIND       PRES   REMARKS
BLANDING       CLOUDY    63  27  24 E5        29.96R
BRYCE CANYON   CLOUDY    45  32  60 CALM      30.00R
CEDAR CITY     MOCLDY    53  29  39 W7        29.90R
DELTA          CLOUDY    61  37  41 N12       29.86S
HANKSVILLE     CLOUDY    68  28  22 NE6       29.83S
MILFORD        NOT AVBL
MOAB/CYNLANDS  PTCLDY    65  35  33 CALM      29.80F
PRICE          CLOUDY    61  31  32 SW9       29.89R
ST GEORGE      CLOUDY    72  27  18 W6        29.80S
KANAB          CLOUDY    61  27  27 SW6       29.92R

$$

REGIONAL REPORTS     COLORADO/ARIZONA

CITY           SKY/WX    TMP DP  RH WIND       PRES   REMARKS
CRAIG, CO      LGT RAIN  51  42  71 SE12      29.99S
GRAND JUNCTION CLOUDY    56  44  64 E6        29.88F
RIFLE          CLOUDY    59  40  49 NE3       29.95R
MONTROSE       CLOUDY    56  39  53 N3        29.96S
CORTEZ         MOCLDY    59  38  45 E15G23    29.93R
PAGE, AZ       NOT AVBL
GRAND CANYON   PTCLDY    44  36  73 CALM      29.98R
KINGMAN        CLEAR     68  17  14 S12       29.83R
FLAGSTAFF      CLEAR     49  26  41 W5        30.00S

$$

REGIONAL REPORTS    NEVADA/IDAHO/WYOMING

CITY           SKY/WX    TMP DP  RH WIND       PRES   REMARKS
LAS VEGAS, NV  MOCLDY    73  34  23 SW14      29.72R
ELY            MOCLDY    48  36  63 S8        29.93S
ELKO           MOCLDY    58  41  53 E6        29.89R
POCATELLO, ID  LGT RAIN  55  46  71 S7        29.94R
BURLEY         CLOUDY    59  45  59 E8        29.89R
EVANSTON, WY   CLOUDY    45  41  86 E5        30.03S
ROCK SPRINGS   MOCLDY    47  40  76 NE12      30.02R
KEMMERER       CLOUDY    41  37  87 NW3       30.05R

$$



USA.gov is the U.S. government's official web portal to all federal, state and local government web resources and services.